Other Surface Observations
Issued by NWS Charleston, SC

Home | Current Version | Previous Version | Text Only | Print | Product List | Glossary On
Versions: 1 2 3 4 5 6 7 8 9 10 11 12 13 14 15 16 17 18 19 20 21 22 23 24 25 26 27 28 29 30 31 32 33 34 35 36 37 38 39 40 41 42 43 44 45 46 47 48 49 50
000
SXUS52 KCHS 011612
OSOCHS

MARINE OBSERVATIONS
NATIONAL WEATHER SERVICE CHARLESTON SC
1200 PM EDT WED JUL 01 2015

...DOWNTOWN CHARLESTON AND HARBOR...

CITY           SKY/WX    TMP DP  RH WIND       PRES   REMARKS
WATERFRONT PRK   N/A     80  72  76 SW6       30.00S
FORT JOHNSON   NOT AVBL

...LAKE MOULTRIE...

CITY           SKY/WX    TMP DP  RH WIND       PRES   REMARKS
PINOPOLIS      NOT AVBL

...LAKE AND SUPPLEMENTAL COASTAL OBSERVATIONS...

STATION/POSITION TIME  TEMP    WIND        PRES    WAVE   SWELL
                       AIR SEA DIR/SP/G            HT/PER HT/PER/DIR
                 (UTC) (F)     (DEG/KT/KT) (MB)    (FT/S) (FT/S/D)
FORT PULASKI     1500   79 83  240/  9/ 12 1018.5S
SAPELO ISLAND    1500   81     240/ 16     1019.0S
UPR LAKE MARION  NOT AVBL
WINYAH BAY       1445   77     260/  8     1015.0
LAKE MURRAY      1500   77     250/  7/ 11 1015.9R
ACE BASIN NERRS  NOT AVBL


...C-MAN AND BUOY OBSERVATIONS...

STATION/POSITION TIME  TEMP    WIND        PRES    WAVE   SWELL
                       AIR SEA DIR/SP/G            HT/PER HT/PER/DIR
                 (UTC) (F)     (DEG/KT/KT) (MB)    (FT/S) (FT/S/D)
BUOY 41004       1550   79 82  250/ 17/ 19 1016.5R   5/ 9   3/ 9
BUOY 41008       1550   79 79  260/ 16/ 19 1018.6F   3/ 9   2/130/ 9
FOLLY BEACH CMAN 1600   80     210/ 14/ 16 1017.0S
CAPERS NS BUOY   1508   78     260/ 12/ 16 1017.0S
FRIPP NS BUOY    1500   80      30/ 14/ 16 1017.2
5E ST. MARYS GA  1521      77                N/A     2/10


STATION/POSITION TIME  TEMP    WIND        PRES    WAVE   SWELL
                       AIR SEA DIR/SP/G            HT/PER HT/PER/DIR
                 (UTC) (F)     (DEG/KT/KT) (MB)    (FT/S) (FT/S/D)
FRYING PAN BUOY  1550   80 80  230/ 17/ 19 1016.3R   5/ 5   2/170/ 9
BUOY 41025       1550   80 82  230/ 19/ 23 1014.7R   5/ 6   3/180/ 8
CAPE LOOKOUT NC  1600   81     240/ 12/ 15 1015.0F
BUOY 41002       1550   76 80  200/ 14/ 19 1019.4R   6/ 6   3/190/ 7
BUOY 41010       1520   83 84  250/ 14/ 16 1021.3R
ST AUGUSTINE FL  1600   87 74  270/ 11/ 14 1021.0S

$$



USA.gov is the U.S. government's official web portal to all federal, state and local government web resources and services.